Location: Slanting_Bridge
(35.6330°N, 80.9830°W)
Time: 21:27:19
(UTC-04:00)

Amateur Radio Satellites - All Passes

Search period start: 20 April 2015 20:57
Search period end: 21 April 2015 20:57
Location: Slanting_Bridge, 35.6330°N, 80.9830°W

Satellite Date Start Highest point End Downlink Frequencies (MHz)
Time Altitude Azimuth
CINEMA 3 20 Apr 20:59:09 21:01:40 16° 68° (ENE) 21:04:25 145.822/145.860
DOVE 4 20 Apr 21:08:54 21:12:48 41° 74° (ENE) 21:16:51 437.250
PCSat 20 Apr 21:09:08 21:12:48 18° 254° (WSW) 21:16:15 145.827
ISS 20 Apr 21:10:21 21:13:23 36° 36° (NE) 21:16:26 145.825
AAUSAT CUBESAT 2 20 Apr 21:12:59 21:16:41 31° 73° (ENE) 21:20:27 437.432
DELFI C3 20 Apr 21:26:32 21:28:43 15° 69° (ENE) 21:31:04 145.870
BRITE-PL 20 Apr 21:26:48 21:30:46 42° 262° (W) 21:34:43 437.365/2234.400
ZACube-1 20 Apr 21:27:34 21:28:29 11° 66° (ENE) 21:29:40 437.345
CUBEBUG 2 20 Apr 21:35:30 21:38:41 21° 70° (ENE) 21:42:04 437.445
Oscar 11 20 Apr 21:37:22 21:41:02 28° 71° (ENE) 21:44:47 145.826/435.025
PHONESAT 2.4 20 Apr 21:38:12 21:41:44 53° 345° (NNW) 21:45:16 2401.200-2431.200
Cosmos 2499 20 Apr 21:40:04 21:46:56 23° 292° (WNW) 21:53:22 435.465 / 435.565
GOMX 1 20 Apr 21:43:00 21:46:58 44° 262° (W) 21:51:01 467.674
STRAND 1 20 Apr 21:49:03 21:52:07 16° 294° (WNW) 21:54:57 437.568
COMPASS 1 20 Apr 22:00:36 22:04:45 56° 260° (W) 22:08:57 437.405
DX 1 20 Apr 22:02:10 22:05:06 19° 69° (ENE) 22:08:10 434.975-435.025
VERMONT LUNAR 20 Apr 22:06:22 22:09:29 34° 360° (N) 22:12:37 437.305
HUMSAT D 20 Apr 22:06:55 22:09:06 14° 68° (ENE) 22:11:29 437.325/437.525
HO-68 20 Apr 22:08:53 22:15:40 43° 261° (W) 22:22:26 435.675
RS-15 20 Apr 22:09:40 22:15:58 16° 20° (NNE) 22:22:48 29.354- 29.394
UWE-3 20 Apr 22:12:35 22:16:39 46° 74° (ENE) 22:20:52 435.000/436.395/437.385
CANX-2 20 Apr 22:17:08 22:20:32 22° 266° (W) 22:23:52 2200.000
SEEDS 20 Apr 22:17:49 22:21:32 28° 264° (W) 22:25:14 437.485
SO-50 20 Apr 22:18:05 22:22:44 39° 54° (NE) 22:27:21 436.795
CUTE 1.7 + AOD 2 20 Apr 22:27:31 22:30:38 19° 267° (W) 22:33:37 437.475
CINEMA 3 20 Apr 22:34:41 22:38:36 37° 263° (W) 22:42:38 145.822/145.860
Cosmos 2491 20 Apr 22:34:51 22:40:06 19° 82° (E) 22:45:54 435.465 / 435.565
50 SAT 20 Apr 22:36:11 22:38:53 18° 70° (ENE) 22:41:44 437.505
FUNcube-1 20 Apr 22:37:02 22:41:15 71° 76° (ENE) 22:45:37 145.935
VELOX 1 20 Apr 22:46:27 22:50:01 25° 71° (ENE) 22:53:41 145.980
ISS 20 Apr 22:47:19 22:49:34 17° 231° (SW) 22:51:44 145.825
YUBILEINY 20 Apr 22:48:18 22:56:34 46° 76° (ENE) 23:04:52 435.215
DOVE 4 20 Apr 22:49:01 22:50:56 12° 270° (W) 22:52:38 437.250
AAUSAT CUBESAT 2 20 Apr 22:49:26 22:52:24 18° 267° (W) 22:55:14 437.432
UKube-1 20 Apr 22:51:44 22:55:59 66° 75° (ENE) 23:00:17 .
DELFI C3 20 Apr 22:59:45 23:03:35 37° 262° (W) 23:07:24 145.870
ZACube-1 20 Apr 23:00:10 23:04:22 59° 260° (W) 23:08:41 437.345
AISAT 20 Apr 23:01:30 23:05:33 38° 73° (ENE) 23:09:40 437.250
ANTELSAT 20 Apr 23:04:56 23:08:16 20° 92° (E) 23:11:44 437.575/2403.000
CUBEBUG 1 20 Apr 23:08:41 23:11:48 20° 70° (ENE) 23:15:03 437.445
CUBEBUG 2 20 Apr 23:11:34 23:15:15 27° 265° (W) 23:18:59 437.445
Oscar 11 20 Apr 23:13:50 23:17:13 21° 266° (W) 23:20:32 145.826/435.025
PHONESAT 2.4 20 Apr 23:17:01 23:20:23 36° 2° (N) 23:23:43 2401.200-2431.200
ESTCUBE 1 20 Apr 23:21:04 23:25:05 33° 72° (ENE) 23:29:09 437.505/2401.250
NANOSAT C BR1 20 Apr 23:30:41 23:33:13 16° 92° (E) 23:35:57 145.865
POPSAT HIP 1 20 Apr 23:31:14 23:33:51 16° 92° (E) 23:36:38 437.405
DX 1 20 Apr 23:37:13 23:41:08 33° 263° (W) 23:45:03 434.975-435.025
HUMSAT D 20 Apr 23:40:35 23:44:32 40° 262° (W) 23:48:33 437.325/437.525
VERMONT LUNAR 20 Apr 23:44:01 23:47:22 58° 17° (NNE) 23:50:41 437.305
UWE-3 20 Apr 23:51:37 23:53:34 12° 271° (W) 23:55:17 435.000/436.395/437.385
TIGRISAT 20 Apr 23:56:57 00:01:41 73° 101° (ESE) 00:06:21 435.000
POLYITAN 1 20 Apr 23:57:20 00:01:16 34° 97° (E) 00:05:12 437.675
UNISAT 6 20 Apr 23:58:41 00:03:26 79° 102° (ESE) 00:08:07 437.425
SO-50 20 Apr 23:59:14 00:03:04 22° 249° (WSW) 00:06:44 436.795
O/OREOS (USA 219) 21 Apr 00:03:11 00:07:46 90° 289° (WNW) 00:12:22 437.305
DUCHIFAT 1 21 Apr 00:05:13 00:09:15 40° 98° (E) 00:13:17 145.980
50 SAT 21 Apr 00:10:07 00:13:33 27° 264° (W) 00:16:59 437.505
QB50P1 21 Apr 00:18:54 00:23:09 62° 101° (E) 00:27:24 145.935-145.965
RS-15 21 Apr 00:21:27 00:32:26 48° 50° (NE) 00:43:59 29.354- 29.394
VELOX 1 21 Apr 00:22:55 00:26:32 24° 265° (W) 00:30:06 145.980
BUGSAT 1 21 Apr 00:24:34 00:28:33 47° 99° (E) 00:32:35 437.445
Cosmos 2491 21 Apr 00:27:25 00:36:07 77° 278° (W) 00:44:55 435.465 / 435.565
AISAT 21 Apr 00:39:37 00:42:21 16° 268° (W) 00:44:56 437.250
TISAT 1 21 Apr 00:40:17 00:44:15 44° 74° (ENE) 00:48:15 437.305
ANTELSAT 21 Apr 00:40:51 00:45:11 36° 288° (WNW) 00:49:26 437.575/2403.000
QB50P2 21 Apr 00:42:57 00:47:13 65° 284° (WNW) 00:51:28 145.880/145.840
CUBEBUG 1 21 Apr 00:44:11 00:48:01 30° 264° (W) 00:51:48 437.445
YUBILEINY 21 Apr 00:45:32 00:53:12 34° 273° (W) 01:00:36 435.215
SPROUT 21 Apr 00:49:32 00:53:46 74° 77° (ENE) 00:58:03 437.525
PHONESAT 2.4 21 Apr 00:55:23 00:58:57 69° 19° (NNE) 01:02:30 2401.200-2431.200
ESTCUBE 1 21 Apr 00:58:42 01:02:03 20° 267° (W) 01:05:16 437.505/2401.250
Cosmos 2504 21 Apr 01:03:42 01:10:30 30° 70° (ENE) 01:17:06 435.465 / 435.565
NANOSAT C BR1 21 Apr 01:05:18 01:09:15 36° 287° (WNW) 01:13:09 145.865
POPSAT HIP 1 21 Apr 01:05:57 01:09:53 36° 287° (WNW) 01:13:48 437.405
VERMONT LUNAR 21 Apr 01:21:48 01:24:47 29° 211° (SSW) 01:27:43 437.305
ITUPSAT 1 21 Apr 01:22:56 01:26:26 21° 69° (ENE) 01:30:05 437.325
POLYITAN 1 21 Apr 01:33:58 01:36:57 18° 291° (WNW) 01:39:47 437.675
TIGRISAT 21 Apr 01:36:46 01:37:52 11° 295° (WNW) 01:38:42 435.000
DUCHIFAT 1 21 Apr 01:42:14 01:44:46 15° 292° (WNW) 01:47:08 145.980
Oscar 19 21 Apr 01:49:30 01:52:49 18° 92° (E) 01:56:20 437.125/150
BEESAT 21 Apr 01:56:06 02:00:40 48° 73° (ENE) 02:05:18 436.000
SWISSCUBE 21 Apr 01:57:35 02:02:14 55° 74° (ENE) 02:06:57 437.505
QB50P1 21 Apr 01:57:53 01:58:34 10° 294° (WNW) 01:58:59 145.935-145.965
AIST 1 21 Apr 01:58:36 02:02:55 75° 96° (E) 02:07:14
BUGSAT 1 21 Apr 02:01:55 02:03:41 12° 292° (WNW) 02:05:14 437.445
TISAT 1 21 Apr 02:18:30 02:20:20 12° 269° (W) 02:21:57 437.305
Cosmos 2491 21 Apr 02:30:59 02:34:50 13° 300° (WNW) 02:37:59 435.465 / 435.565
RS-15 21 Apr 02:33:59 02:45:03 50° 249° (WSW) 02:56:21 29.354- 29.394
PHONESAT 2.4 21 Apr 02:34:03 02:37:02 25° 213° (SSW) 02:39:58 2401.200-2431.200
STARS 21 Apr 02:51:16 02:54:18 19° 69° (ENE) 02:57:30 437.465
Cosmos 2504 21 Apr 02:56:35 03:04:18 47° 270° (W) 03:11:24 435.465 / 435.565
ITUPSAT 1 21 Apr 02:59:43 03:04:09 35° 263° (W) 03:08:31 437.325
GONETS M04 21 Apr 03:12:55 03:16:18 13° 60° (ENE) 03:20:25
KKS-1 21 Apr 03:18:33 03:22:55 65° 75° (ENE) 03:27:21 437.445
Oscar 19 21 Apr 03:27:28 03:32:29 48° 287° (WNW) 03:37:26 437.125/150
BEESAT 21 Apr 03:36:01 03:38:50 15° 269° (W) 03:41:25 436.000
SWISSCUBE 21 Apr 03:38:10 03:40:31 13° 270° (W) 03:42:34 437.505
Gurwin Techsat 1B 21 Apr 03:48:29 03:53:47 69° 101° (E) 03:59:04 435.225
ITAMSAT 1 21 Apr 03:50:01 03:55:13 83° 103° (ESE) 04:00:24 435.822/435.867
CUSAT 1 21 Apr 03:50:47 03:53:18 12° 64° (ENE) 03:56:34 437.405
BEESAT 2 21 Apr 03:51:27 03:54:25 20° 111° (ESE) 03:57:31 435.950
BEESAT 3 21 Apr 03:56:26 03:59:53 28° 113° (ESE) 04:03:26 437.485
HORYU 2 21 Apr 03:57:49 04:00:07 14° 91° (E) 04:02:38 437.375
JUGNU 21 Apr 04:17:56 04:20:54 14° 172° (S) 04:23:54 437.505
AIST 2 21 Apr 04:20:25 04:22:14 13° 109° (ESE) 04:24:16 435.215
STARS 21 Apr 04:26:38 04:30:35 32° 263° (W) 04:34:31 437.465
AO-7 21 Apr 04:28:44 04:35:29 28° 95° (E) 04:42:29 29.400- 29.500
MOZHAYETS 4 21 Apr 04:43:53 04:47:59 32° 72° (ENE) 04:52:08
JAS-2 21 Apr 04:59:14 05:05:21 43° 96° (E) 05:10:48 435.910
GONETS M04 21 Apr 05:06:06 05:14:59 77° 82° (E) 05:23:49
BEESAT 2 21 Apr 05:28:41 05:32:22 30° 306° (NW) 05:36:04 435.950
CUSAT 1 21 Apr 05:29:47 05:37:05 71° 80° (E) 05:45:24 437.405
Gurwin Techsat 1B 21 Apr 05:30:33 05:33:15 14° 295° (WNW) 05:35:41 435.225
HORYU 2 21 Apr 05:32:45 05:37:04 44° 286° (WNW) 05:41:18 437.375
ITAMSAT 1 21 Apr 05:32:45 05:34:07 11° 297° (WNW) 05:35:08 435.822/435.867
BEESAT 3 21 Apr 05:34:36 05:37:55 23° 309° (NW) 05:41:11 437.485
DANDE 21 Apr 05:34:37 05:41:40 62° 79° (E) 05:50:01 436.750
AUBIESAT-1 21 Apr 05:38:16 05:41:40 21° 64° (ENE) 05:45:16 437.475
Cosmos 2499 21 Apr 05:41:45 05:46:51 19° 65° (ENE) 05:52:05 435.465 / 435.565
AIST 2 21 Apr 05:56:18 06:00:27 50° 303° (WNW) 06:04:38 435.215
SRMSAT 21 Apr 06:05:33 06:08:40 15° 172° (S) 06:11:49 437.500
JUGNU 21 Apr 06:05:36 06:09:11 17° 182° (S) 06:12:45 437.505
CUBESAT XI-V 21 Apr 06:06:42 06:09:50 19° 69° (ENE) 06:13:06 437.345
AO-7 21 Apr 06:20:37 06:28:43 57° 292° (WNW) 06:36:47 29.400- 29.500
MOZHAYETS 4 21 Apr 06:21:42 06:25:17 21° 267° (W) 06:28:44
M-CUBED/EXP-1 PRIME 21 Apr 06:24:07 06:28:47 70° 71° (ENE) 06:33:38 437.505
JAS-2 21 Apr 06:44:49 06:50:08 26° 295° (WNW) 06:54:49 435.910
GONETS M04 21 Apr 07:05:05 07:10:59 19° 278° (W) 07:16:21
AUBIESAT-1 21 Apr 07:11:45 07:16:09 40° 258° (WSW) 07:20:41 437.475
CUSAT 1 21 Apr 07:13:56 07:19:32 22° 271° (W) 07:25:12 437.405
PRISM 21 Apr 07:15:22 07:19:32 71° 76° (ENE) 07:23:43 437.425
DANDE 21 Apr 07:18:53 07:24:46 25° 269° (W) 07:31:00 436.750
STRAND 1 21 Apr 07:21:13 07:26:14 59° 74° (ENE) 07:31:16 437.568
Cosmos 2499 21 Apr 07:33:09 07:41:00 70° 266° (W) 07:48:14 435.465 / 435.565
CUTE-I 21 Apr 07:40:28 07:45:48 74° 102° (ESE) 07:51:07 437.470
CUBESAT XI-V 21 Apr 07:42:42 07:47:02 37° 262° (W) 07:51:20 437.345
Cubesat XI-IV 21 Apr 07:48:31 07:53:51 88° 96° (E) 07:59:12 437.490
SRMSAT 21 Apr 07:53:29 07:57:06 17° 182° (S) 08:00:43 437.500
JUGNU 21 Apr 07:55:08 07:57:27 12° 191° (S) 07:59:40 437.505
M-CUBED/EXP-1 PRIME 21 Apr 08:02:46 08:04:11 11° 267° (W) 08:05:17 437.505
AO-7 21 Apr 08:18:19 08:20:00 10° 310° (NW) 08:21:04 29.400- 29.500
STRAND 1 21 Apr 09:03:17 09:05:54 13° 270° (W) 09:08:13 437.568
DOVE 4 21 Apr 09:10:57 09:14:16 18° 92° (E) 09:17:53 437.250
CUTE-I 21 Apr 09:22:55 09:25:20 13° 296° (WNW) 09:27:27 437.470
Cubesat XI-IV 21 Apr 09:32:13 09:33:19 10° 297° (WNW) 09:34:03 437.490
BRITE-PL 21 Apr 09:32:45 09:37:44 70° 100° (E) 09:43:07 437.365/2234.400
HO-68 21 Apr 09:39:27 09:46:14 44° 99° (E) 09:53:01 435.675
SRMSAT 21 Apr 09:43:17 09:45:32 12° 192° (SSW) 09:47:41 437.500
GOMX 1 21 Apr 09:46:17 09:51:18 63° 100° (E) 09:56:36 467.674
COMPASS 1 21 Apr 09:47:32 09:51:07 27° 95° (E) 09:54:45 437.405
ANTELSAT 21 Apr 10:02:46 10:04:31 12° 66° (ENE) 10:06:33 437.575/2403.000
PCSat 21 Apr 10:02:50 10:08:15 88° 107° (ESE) 10:13:43 145.827
CANX-2 21 Apr 10:04:21 10:08:40 79° 101° (ESE) 10:12:56 2200.000
SEEDS 21 Apr 10:04:35 10:08:47 57° 100° (E) 10:12:57 437.485
UWE-3 21 Apr 10:07:03 10:09:10 13° 90° (E) 10:11:32 435.000/436.395/437.385
CUTE 1.7 + AOD 2 21 Apr 10:14:18 10:18:36 87° 283° (WNW) 10:22:51 437.475
O/OREOS (USA 219) 21 Apr 10:16:14 10:20:45 78° 251° (WSW) 10:25:11 437.305
FUNcube-1 21 Apr 10:29:22 10:32:28 18° 92° (E) 10:35:43 145.935
CINEMA 3 21 Apr 10:31:30 10:36:25 63° 100° (E) 10:41:24 145.822/145.860
AAUSAT CUBESAT 2 21 Apr 10:33:56 10:38:10 90° 99° (E) 10:42:19 437.432
Cosmos 2491 21 Apr 10:41:36 10:50:00 47° 76° (ENE) 10:58:28 435.465 / 435.565
DELFI C3 21 Apr 10:42:14 10:45:54 33° 97° (E) 10:49:35 145.870
UKube-1 21 Apr 10:43:56 10:46:01 14° 92° (E) 10:48:21 .
DOVE 4 21 Apr 10:47:25 10:52:14 47° 286° (WNW) 10:57:13 437.250
POLYITAN 1 21 Apr 10:48:33 10:51:23 18° 69° (ENE) 10:54:22 437.675
ZACube-1 21 Apr 10:51:51 10:56:01 33° 97° (E) 11:00:11 437.345
TIGRISAT 21 Apr 10:52:51 10:57:02 43° 73° (ENE) 11:01:22 435.000
UNISAT 6 21 Apr 10:54:45 10:58:59 47° 74° (ENE) 11:03:24 437.425
DUCHIFAT 1 21 Apr 10:55:35 10:58:40 21° 70° (ENE) 11:01:53 145.980
Oscar 11 21 Apr 11:02:55 11:07:18 86° 101° (ESE) 11:11:38 145.826/435.025
CUBEBUG 2 21 Apr 11:04:33 11:09:19 75° 102° (ESE) 11:14:06 437.445
QB50P1 21 Apr 11:09:07 11:12:48 31° 72° (ENE) 11:16:32 145.935-145.965
BUGSAT 1 21 Apr 11:12:36 11:15:42 22° 71° (ENE) 11:18:52 437.445
BRITE-PL 21 Apr 11:13:38 11:15:53 13° 292° (WNW) 11:17:53 437.365/2234.400
COMPASS 1 21 Apr 11:23:30 11:26:40 20° 290° (WNW) 11:29:43 437.405
GOMX 1 21 Apr 11:26:17 11:29:03 14° 292° (WNW) 11:31:38 467.674
HO-68 21 Apr 11:27:32 11:33:47 32° 295° (WNW) 11:39:52 435.675
HUMSAT D 21 Apr 11:27:33 11:31:36 38° 98° (E) 11:35:40 437.325/437.525
DX 1 21 Apr 11:28:00 11:32:14 50° 100° (E) 11:36:29 434.975-435.025
QB50P2 21 Apr 11:32:49 11:36:58 62° 76° (ENE) 11:41:09 145.880/145.840
ANTELSAT 21 Apr 11:36:29 11:40:51 56° 261° (W) 11:45:21 437.575/2403.000
UWE-3 21 Apr 11:41:29 11:46:04 52° 285° (WNW) 11:50:36 435.000/436.395/437.385
SEEDS 21 Apr 11:43:01 11:44:09 11° 293° (WNW) 11:45:01 437.485
YUBILEINY 21 Apr 11:44:54 11:53:27 59° 92° (E) 12:02:05 435.215
50 SAT 21 Apr 11:49:48 11:53:39 41° 98° (E) 11:57:29 437.505
PCSat 21 Apr 11:49:50 11:52:30 13° 315° (NW) 11:54:56 145.827
NANOSAT C BR1 21 Apr 11:54:30 11:58:41 73° 258° (WSW) 12:02:53 145.865
POPSAT HIP 1 21 Apr 11:55:23 11:59:34 71° 258° (WSW) 12:03:47 437.405
FUNcube-1 21 Apr 12:04:42 12:08:56 37° 287° (WNW) 12:13:07 145.935
AIST 1 21 Apr 12:10:30 12:12:32 13° 71° (ENE) 12:14:47
CINEMA 3 21 Apr 12:10:39 12:13:10 14° 293° (WNW) 12:15:26 145.822/145.860
VELOX 1 21 Apr 12:15:20 12:19:47 78° 102° (ESE) 12:24:13 145.980
DELFI C3 21 Apr 12:18:17 12:20:49 16° 291° (WNW) 12:23:09 145.870
UKube-1 21 Apr 12:18:19 12:22:26 43° 287° (WNW) 12:26:31 .
POLYITAN 1 21 Apr 12:23:20 12:27:07 31° 263° (W) 12:30:52 437.675
ZACube-1 21 Apr 12:28:41 12:32:10 21° 290° (WNW) 12:35:30 437.345
SO-50 21 Apr 12:30:28 12:34:04 24° 111° (ESE) 12:37:53 436.795
DUCHIFAT 1 21 Apr 12:30:48 12:34:23 27° 264° (W) 12:37:55 145.980
AISAT 21 Apr 12:31:14 12:35:39 66° 284° (WNW) 12:40:04 437.250
TIGRISAT 21 Apr 12:31:31 12:34:05 15° 269° (W) 12:36:28 435.000
UNISAT 6 21 Apr 12:33:50 12:36:08 13° 270° (W) 12:38:14 437.425
CUBEBUG 1 21 Apr 12:35:18 12:39:37 60° 100° (E) 12:43:55 437.445
Cosmos 2491 21 Apr 12:38:56 12:46:38 34° 273° (W) 12:54:06 435.465 / 435.565
SPROUT 21 Apr 12:40:24 12:43:03 16° 92° (E) 12:45:53 437.525
CUBEBUG 2 21 Apr 12:44:22 12:45:28 11° 294° (WNW) 12:46:16 437.445
QB50P1 21 Apr 12:45:48 12:48:45 18° 267° (W) 12:51:35 145.935-145.965
BUGSAT 1 21 Apr 12:47:51 12:51:07 23° 265° (W) 12:54:18 437.445
ESTCUBE 1 21 Apr 12:52:54 12:57:24 74° 283° (WNW) 13:01:50 437.505/2401.250
Oscar 19 21 Apr 13:03:44 13:07:16 20° 67° (ENE) 13:11:00 437.125/150
HUMSAT D 21 Apr 13:04:19 13:07:05 16° 291° (WNW) 13:09:40 437.325/437.525
DX 1 21 Apr 13:06:02 13:08:07 13° 293° (WNW) 13:09:59 434.975-435.025
50 SAT 21 Apr 13:26:10 13:28:09 13° 292° (WNW) 13:29:56 437.505
ITAMSAT 1 21 Apr 13:31:09 13:31:20 10° 63° (ENE) 13:31:52 435.822/435.867
Cosmos 2504 21 Apr 13:37:40 13:44:44 29° 85° (E) 13:52:07 435.465 / 435.565
YUBILEINY 21 Apr 13:43:31 13:50:52 27° 291° (WNW) 13:57:56 435.215
AIST 1 21 Apr 13:46:28 13:50:28 39° 267° (W) 13:54:25
ISS 21 Apr 13:46:35 13:49:46 55° 135° (SE) 13:52:58 145.825
BEESAT 2 21 Apr 13:50:15 13:54:20 63° 59° (ENE) 13:58:21 435.950
BEESAT 3 21 Apr 13:55:10 13:59:17 89° 58° (ENE) 14:03:18 437.485
BEESAT 21 Apr 14:00:42 14:03:24 16° 92° (E) 14:06:20 436.000
SWISSCUBE 21 Apr 14:02:03 14:05:09 18° 92° (E) 14:08:25 437.505
TISAT 1 21 Apr 14:03:09 14:07:22 63° 285° (WNW) 14:11:33 437.305
SO-50 21 Apr 14:10:12 14:14:27 34° 307° (NW) 14:18:47 436.795
CUBEBUG 1 21 Apr 14:14:21 14:15:32 11° 294° (WNW) 14:16:28 437.445
SPROUT 21 Apr 14:15:19 14:19:18 36° 287° (WNW) 14:23:14 437.525
AIST 2 21 Apr 14:20:51 14:24:53 41° 56° (NE) 14:28:51 435.215
Oscar 19 21 Apr 14:41:27 14:46:20 44° 261° (W) 14:51:15 437.125/150
RS-15 21 Apr 14:42:37 14:51:59 37° 108° (ESE) 15:01:43 29.354- 29.394
ITUPSAT 1 21 Apr 15:02:49 15:07:36 75° 103° (ESE) 15:12:21 437.325
ITAMSAT 1 21 Apr 15:05:00 15:10:12 88° 256° (WSW) 15:15:25 435.822/435.867
Gurwin Techsat 1B 21 Apr 15:06:34 15:11:51 80° 76° (ENE) 15:17:12 435.225
JAS-2 21 Apr 15:08:10 15:13:03 19° 62° (ENE) 15:18:15 435.910
KKS-1 21 Apr 15:13:54 15:16:36 16° 92° (E) 15:19:29 437.445
ISS 21 Apr 15:24:10 15:26:22 16° 332° (NNW) 15:28:32 145.825
AO-7 21 Apr 15:24:54 15:31:45 31° 62° (ENE) 15:38:48 29.400- 29.500
Cosmos 2504 21 Apr 15:29:07 15:37:46 56° 282° (WNW) 15:46:26 435.465 / 435.565
BEESAT 21 Apr 15:36:59 15:41:32 45° 287° (WNW) 15:46:03 436.000
SWISSCUBE 21 Apr 15:38:46 15:43:13 40° 288° (WNW) 15:47:37 437.505
AIST 2 21 Apr 16:00:40 16:03:09 15° 250° (WSW) 16:05:25 435.215
GONETS M04 21 Apr 16:11:10 16:15:44 16° 81° (E) 16:20:56
STARS 21 Apr 16:18:47 16:23:09 56° 100° (E) 16:27:32 437.465
HORYU 2 21 Apr 16:27:42 16:32:10 71° 259° (W) 16:36:40 437.375
ITUPSAT 1 21 Apr 16:44:01 16:44:57 10° 296° (WNW) 16:45:33 437.325
KKS-1 21 Apr 16:49:15 16:53:26 39° 287° (WNW) 16:57:36 437.445
JAS-2 21 Apr 16:49:27 16:57:16 86° 256° (WSW) 17:05:08 435.910
RS-15 21 Apr 16:53:17 17:03:57 57° 307° (NW) 17:14:49 29.354- 29.394
AO-7 21 Apr 17:16:08 17:24:13 55° 258° (WSW) 17:32:17 29.400- 29.500
CUTE-I 21 Apr 17:25:10 17:25:19 10° 62° (ENE) 17:25:51 437.470
Cubesat XI-IV 21 Apr 17:31:24 17:33:25 13° 64° (ENE) 17:35:44 437.490
STARS 21 Apr 17:57:19 17:59:11 12° 294° (WNW) 18:00:50 437.465
VERMONT LUNAR 21 Apr 18:00:44 18:03:16 20° 146° (SE) 18:05:51 437.305
GONETS M04 21 Apr 18:02:51 18:11:36 85° 277° (W) 18:20:28
Cosmos 2499 21 Apr 18:14:42 18:20:02 19° 83° (E) 18:25:54 435.465 / 435.565
MOZHAYETS 4 21 Apr 18:18:32 18:23:07 70° 284° (WNW) 18:27:39
CUSAT 1 21 Apr 18:37:25 18:40:26 89° 100° (E) 18:44:21 437.405
JAS-2 21 Apr 18:39:02 18:43:21 15° 274° (W) 18:47:04 435.910
DANDE 21 Apr 18:46:49 18:49:39 77° 99° (E) 18:53:13 436.750
PCSat 21 Apr 18:53:57 18:58:57 37° 56° (ENE) 19:03:59 145.827
AUBIESAT-1 21 Apr 18:57:12 19:00:11 20° 97° (E) 19:03:08 437.475
CUTE-I 21 Apr 18:59:24 19:04:44 89° 87° (E) 19:10:06 437.470
PRISM 21 Apr 19:02:57 19:04:26 12° 91° (E) 19:06:07 437.425
Cubesat XI-IV 21 Apr 19:07:37 19:12:57 76° 257° (WSW) 19:18:19 437.490
RS-15 21 Apr 19:12:38 19:19:43 18° 336° (NNW) 19:26:34 29.354- 29.394
PHONESAT 2.4 21 Apr 19:19:57 19:23:08 30° 148° (SSE) 19:26:21 2401.200-2431.200
STRAND 1 21 Apr 19:35:20 19:39:27 25° 95° (E) 19:43:40 437.568
VERMONT LUNAR 21 Apr 19:37:10 19:40:33 78° 339° (NNW) 19:43:57 437.305
CUBESAT XI-V 21 Apr 19:41:57 19:46:32 67° 101° (E) 19:51:06 437.345
M-CUBED/EXP-1 PRIME 21 Apr 19:44:12 19:48:32 90° 82° (E) 19:52:28 437.505
Cosmos 2499 21 Apr 20:03:30 20:12:23 81° 277° (W) 20:21:13 435.465 / 435.565
GONETS M04 21 Apr 20:05:09 20:10:03 15° 298° (WNW) 20:14:20
HO-68 21 Apr 20:05:53 20:11:22 25° 63° (ENE) 20:17:04 435.675
ISS 21 Apr 20:16:42 20:19:13 20° 31° (NNE) 20:21:44 145.825
DOVE 4 21 Apr 20:17:15 20:17:25 10° 66° (ENE) 20:17:52 437.250
AUBIESAT-1 21 Apr 20:31:24 20:35:04 28° 295° (WNW) 20:38:27 437.475
PRISM 21 Apr 20:36:17 20:40:11 43° 287° (WNW) 20:44:03 437.425
COMPASS 1 21 Apr 20:37:22 20:39:32 14° 68° (ENE) 20:41:53 437.405
PCSat 21 Apr 20:37:45 20:42:13 26° 252° (WSW) 20:46:32 145.827
BRITE-PL 21 Apr 20:41:48 20:45:48 52° 75° (ENE) 20:49:53 437.365/2234.400
